Regional Weather Roundup
Issued by NWS

Home | Current Version | Previous Version | Text Only | Print | Product List | Glossary Off
Versions: 1 2 3 4 5 6 7 8 9 10 11 12 13 14 15 16 17 18 19 20 21 22 23 24 25 26 27 28 29 30 31 32 33 34 35 36 37 38 39 40 41 42 43 44 45 46 47 48 49 50

000
ASUS43 KLOT 212009
RWRIL

ILLINOIS REGIONAL WEATHER ROUNDUP
NATIONAL WEATHER SERVICE CHICAGO/ROMEOVILLE IL
300 PM CDT SAT OCT 21 2017

NOTE: "FAIR" INDICATES FEW OR NO CLOUDS BELOW 12,000 FEET WITH NO
SIGNIFICANT WEATHER AND/OR OBSTRUCTIONS TO VISIBILITY.

* THESE STATIONS ARE NOT UNDER NWS QUALITY CONTROL. THEY ALSO MAY NOT
  REPORT WEATHER SUCH AS PRECIPITATION OR FOG.

ILZ001-002-007-009-015-016-024-212100-
NORTHWEST ILLINOIS

CITY           SKY/WX    TMP DP  RH WIND       PRES   REMARKS
MOLINE         SUNNY     79  59  50 S22G29    29.87S HX  80
STERLING*      SUNNY     79  59  50 S10G18      N/A  HX  80
SAVANNA*       SUNNY     79  58  49 S17G23    29.89S HX  80
$$

ILZ003-004-008-010-011-017-018-212100-
NORTH CENTRAL ILLINOIS

CITY           SKY/WX    TMP DP  RH WIND       PRES   REMARKS
ROCKFORD       MOSUNNY   78  55  44 S20       29.94F
FREEPORT*      MOSUNNY   76  56  50 S20G26    29.93F
ROCHELLE*      SUNNY     78  56  46 S18G26    29.94S
DE KALB*       SUNNY     77  57  50 S24G30    29.96F
PERU*          SUNNY     76  56  50 S22G29    29.95F
$$

ILZ005-006-012>014-019>023-212100-
NORTHEAST ILLINOIS

CITY           SKY/WX    TMP DP  RH WIND       PRES   REMARKS
CHICAGO-OHARE  MOSUNNY   76  56  49 S16G23    29.99F
CHICAGO-MIDWAY PTSUNNY   77  58  51 S17G26    29.99F
AURORA         SUNNY     77  57  50 S17G26    29.97F
LANSING*       MOSUNNY   74  61  62 S17G24    30.03F
JOLIET*        SUNNY     77  60  55 S14G22    29.99F
WAUKEGAN       SUNNY     75  57  53 S14       29.97F
DUPAGE AIRPORT SUNNY     75  58  55 S20G29    29.97F
KANKAKEE*      MOSUNNY   75  58  55 S13       30.04F
WHEELING       SUNNY     76  58  53 S17G26    29.99F
MORRIS*        SUNNY     78  57  48 S17G24    29.98F
ROMEOVILLE*    SUNNY    N/A N/A N/A S18G26    29.99F
NORTHERLY ISL    N/A     75  54  47 S20         N/A
$$

LMZ740>746-212100-
SOUTHERN LAKE MICHIGAN

STATION/POSITION SKY/WX   TEMP    WIND        PRES    VSBY  WAVE
                          AIR SEA DIR/SP/G                  HT/PER
                          (F)     (DEG/KT/KT) (MB)    (MI)  (FT/S)
SOUTHERN BUOY              64 61  150/ 17/ 21 1016.7          4/ 5
WILMETTE HARBOR            68 60  170/ 16/ 21   N/A           2/ 3
HARRISON CRIB              71     190/ 19/ 22   N/A
BURNHAM HARBOR             75     180/ 15/ 21   N/A
CALUMET HARBOR             74     170/ 11/ 16 1015.7F
BURNS HARBOR               73     190/ 15/ 21 1017.9S
MICHIGAN CITY              73     170/ 16/ 22   N/A
MICHIGAN CITY 6N           69 58  190/ 14/ 21   N/A           1/ 2
ST. JOSEPH                 66 59  210/ 10/ 16 1018.0          2/ 3
$$

ILZ025>027-034>036-040-047-049-050-058-095>099-212100-
WEST-CENTRAL ILLINOIS

CITY           SKY/WX    TMP DP  RH WIND       PRES   REMARKS
QUINCY         MOSUNNY   80  61  52 S18G30    29.89F HX  81
GALESBURG*     SUNNY     85  68  57 S20G26    29.90F HX  88
MACOMB*        MOSUNNY   79  60  51 S22G29    29.92F HX  80
JACKSONVILLE*  SUNNY     74  61  63 S17G23    29.96S
PITTSFIELD*    SUNNY     77  64  63 S15G22    29.95S
$$

ILZ028>032-037-038-041>044-048-051>054-059>061-212100-
CENTRAL ILLINOIS

CITY           SKY/WX    TMP DP  RH WIND       PRES   REMARKS
PONTIAC        SUNNY     77  61  57 S20G28    30.00F
BLOOMINGTON    MOSUNNY   74  61  63 S25G36    30.01F
DECATUR        MOSUNNY   75  59  57 S18G29    30.02F
PEORIA         SUNNY     78  61  55 S23G30    29.94F HX  80
LACON*         SUNNY     76  60  57 S17G24    29.94F
LINCOLN*       PTSUNNY   75  62  62 S21G26    29.99F
SPRINGFIELD    CLOUDY    76  61  59 S16G24    29.98F
TAYLORVILLE    MOSUNNY   78  59  52 S21G26    30.01F
$$

ILZ033-039-045-046-055>057-062-063-212100-
EAST-CENTRAL ILLINOIS

CITY           SKY/WX    TMP DP  RH WIND       PRES   REMARKS
CHAMPAIGN      CLOUDY    77  56  48 S18       30.06F
DANVILLE*      SUNNY     77  57  50 S14G21    30.05F
RANTOUL*       CLOUDY    75  59  57 S14G20    30.06S
MATTOON        MOSUNNY   77  61  57 S16G22    30.06F
PARIS*         CLOUDY    74  59  58 S14       30.09F
$$

ILZ079-100>102-212100-
SOUTHWEST ILLINOIS

CITY           SKY/WX    TMP DP  RH WIND       PRES   REMARKS
ALTON          PTSUNNY   73  63  68 S16G23    30.00F
BELLEVILLE     MOSUNNY   79  61  53 S18       30.02F HX  80
CAHOKIA*       MOSUNNY   83  59  44 S12G22    29.98F HX  83
SPARTA*        MOSUNNY   79  59  50 S10       30.04F HX  80
$$

ILZ064>066-069>071-074>076-080>082-084>086-088>090-092>094-212100-
SOUTH-CENTRAL ILLINOIS

CITY           SKY/WX    TMP DP  RH WIND       PRES   REMARKS
CARBONDALE     SUNNY     78  58  49 S15G23    30.06F
CAIRO*         SUNNY     78  57  48 S12       30.07F
EFFINGHAM*     MOSUNNY   76  58  54 SE12      30.08F
MARION         PTSUNNY   79  57  47 S14G20    30.08F HX  80
MT. VERNON     MOSUNNY   76  59  55 S9        30.08F
CENTRALIA*     SUNNY     78  58  50 S13G20    30.05F HX  80
SALEM*         CLOUDY    79  56  44 S12G17    30.06F HX  80
METROPOLIS*    PTSUNNY   81  56  41 S5        30.09F HX  81
$$

ILZ067-068-072-073-078-083-087-091-212100-
SOUTHEAST ILLINOIS

CITY           SKY/WX    TMP DP  RH WIND       PRES   REMARKS
LAWRENCEVILLE  MOSUNNY   76  57  51 SE15      30.10F
FLORA*         PTSUNNY   79  59  51 S14G20    30.08F HX  80
FAIRFIELD*     PTSUNNY   78  57  49 S9        30.08F
HARRISBURG*    PTSUNNY   79  58  48 S10G16    30.10F HX  80
ROBINSON*      MOSUNNY   78  57  48 S12       30.10F
CARMI*         LGT RAIN  76  57  52 S12       30.10F
$$

ABBREVIATIONS USED IN REMARKS
   TC - TEMPERATURE IN CELSIUS
  WCI - WIND CHILL INDEX
   HX - HEAT INDEX
  VSB - VISIBILITY
$$





USA.gov is the U.S. government's official web portal to all federal, state and local government web resources and services.